Starlink 31159

operational
NORAD ID: 58740 Int'l Des: 2024-005 Owner: SPXS Country: US Constellation: starlink
LEOCIRCULAR

About Starlink 31159

Description loading...

Live Position

Loading 3D Globe...

Upcoming Passes

Altitude History

Altitude vs Time

uPlot chart will show altitude changes over time

Two-Line Element Set

1 58740U 24005N 26102.79333705 .00000282 00000-0 19764-4 0 9996
2 58740 43.0028 26.7772 0001023 253.1760 106.8980 15.27570365125757
Epoch: Apr 12, 2026 • Age: 11 hours

Current Status

Altitude 495.7 km
Velocity 7.62 km/s
Sub-Earth Point -43.12°S, 5.53°E
Launch Date Jan 7, 2024
Age 2.2 years
Type internet

Technical Details

Classification Payload
Mass 730.00 kg
Dry Mass 700.00 kg
Total Mass 730.00 kg
Length 0.30 m
Diameter 4.10 m
Span 29.00 m
Shape Box + pan
Manufacturer SPXS
Bus Type Starlink V2M
Phase Status In Orbit
Owner/State SPXS/US

Large Constellations

Loading constellations...